Terminal Aerodrome Forecast
Issued by NWS

Home | Current Version | Previous Version | Graphics & Text | Print | Product List | Glossary On
Versions: 1 2 3 4 5 6 7 8 9 10 11 12 13 14 15 16 17 18 19 20 21 22 23 24 25 26 27 28
000
FTUS42 KMHX 240100 AAA
TAFOAJ
TAF AMD
KOAJ 240100Z 2401/2424 04004KT 3/4SM -RA BR OVC002
     FM240900 15005KT 2SM -RA BR OVC003
     FM241400 18012KT 3SM -RA BR BKN008
      AMD LTD TO CLD VIS AND WIND=

USA.gov is the U.S. government's official web portal to all federal, state and local government web resources and services.